QZS-1 (MICHIBIKI-1)

Last updated on June 26, 2019, 3:46 a.m. UTC

1 37158U 10045A   19176.83594601 -.00000090  00000-0  00000+0 0  9993
2 37158  41.3348 148.6801 0758998 270.6313 294.1422  1.00272912 32165
UTC
Height (km)
Latitude
Longitude
Inclination
Orbital Period
UTC large
Height (km)
Speed (km/s)
/
Latitude / Longitude
Inclination (degrees)
Orbital Period (minutes)
Azimuth
Elevation
Range (km)
Doppler Factor
iOS Compass Heading
iOS Angle

Next 30 passes for location: Hong Kong

Rise time Rise Azimuth (degrees) Set time Set Azimuth (degrees) Duration Max altitude (degrees)

No matching passes for this satellites